Regional Weather Roundup
Issued by NWS Green Bay, WI

Home | Current Version | Previous Version | Graphics & Text | Print | Product List | Glossary Off
Versions: 1 2 3 4 5 6 7 8 9 10 11 12 13 14 15 16 17 18 19 20 21 22 23 24 25 26 27 28 29 30 31 32 33 34 35 36 37 38 39 40 41 42 43 44 45 46 47 48 49 50

000
ASUS43 KGRB 030010
RWRGRB

NORTH-CENTRAL AND NORTHEAST WISCONSIN REGIONAL WEATHER ROUNDUP
NATIONAL WEATHER SERVICE GREEN BAY WI
700 PM CDT SAT MAY 02 2015

WIZ005-009-010>012-018-019-030100-
NORTH CENTRAL WISCONSIN

CITY           SKY/WX    TMP DP  RH WIND       PRES   REMARKS
IRONWOOD       MOSUNNY   73  39  29 S8        29.75F
MANITOWISH WTR MOSUNNY   71  42  36 SW7       29.82F
ARBOR VITAE    MOSUNNY   72  40  31 SW6       29.83F
EAGLE RIVER    SUNNY     70  37  29 SW5       29.83S
LAND O LAKES   MOSUNNY   72  36  26 SW5       29.84S
RHINELANDER    SUNNY     73  39  29 SW9       29.84F
PHILLIPS       MOSUNNY   73  42  32 S12       29.81F
ANTIGO         PTCLDY    71  42  35 SW8       29.86S
TOMAHAWK       MOSUNNY   73  39  30 CALM      29.84S
MERRILL        SUNNY     74  42  32 SW9       29.83F
$$

WIZ013-073-030100-
NORTHEAST WISCONSIN

CITY           SKY/WX    TMP DP  RH WIND       PRES   REMARKS
IRON MOUNTAIN  PTCLDY    74  39  28 SW7       29.81F
MARINETTE      MOCLDY    66  43  42 S12       29.83S
OCONTO         MOCLDY    76  41  28 SW9       29.83S
$$

WIZ017-030-035>037-045-030100-
CENTRAL WISCONSIN

CITY           SKY/WX    TMP DP  RH WIND       PRES   REMARKS
MEDFORD        MOSUNNY   72  42  33 SW9       29.83F
WAUSAU         MOSUNNY   73  41  31 SW12      29.83F
MOSINEE        SUNNY     70  39  32 SW7       29.87S
MARSHFIELD     MOSUNNY   75  41  29 SW13      29.84F
WISC RAPIDS    MOSUNNY   75  37  25 SW16      29.86F
STEVENS POINT  MOCLDY    74  38  27 SW9       29.86S
WAUPACA        PTCLDY    77  37  23 SW8       29.86S
SHAWANO        CLEAR     78  37  22 SW10      29.85S
CLINTONVILLE   PTCLDY    75  36  23 SW8       29.85S
$$

WIZ038-039-048-051-030100-
FOX VALLEY

CITY           SKY/WX    TMP DP  RH WIND       PRES   REMARKS
NWS GREEN BAY  CLEAR     75  45  34 S7        29.86S
APPLETON       PTCLDY    73  39  29 SW17      29.88S
OSHKOSH        CLEAR     74  42  31 SW10      29.88S
FOND DU LAC    CLEAR     74  42  31 SW13      29.89S
$$

WIZ022-050-052-030100-
EAST CENTRAL WISCONSIN

CITY           SKY/WX    TMP DP  RH WIND       PRES   REMARKS
STURGEON BAY   CLEAR     61  37  41 S15       29.89S
MANITOWOC      CLEAR     62  37  39 S15       29.91S
SHEBOYGAN      PTCLDY    63  37  38 S9        29.91F
$$

LMZ563-521-522-541>543-030100-
LAKESHORE

STATION/POSITION TIME  TEMP    WIND        PRES    VSBY  WAVE
                       AIR SEA DIR/SP/G                  HT/PER
                 (UTC) (F)     (DEG/KT/KT) (MB)    (MI)  (FT/S)
SHEBOYGAN LKSHOR 0000   51     180/ 18/ 19 1013.3S
KEWAUNEE LKSHORE 0000   49     180/ 16/ 18 1011.6F
NORTHPORT PIER   0000   58     190/  7/ 16 1011.2F
SISTER BAY LKSHO 0000   61     200/ 23/ 29   N/A
CHAMBERS ISLAND  0000   63     140/  6/ 13 1010.8S
MENOMINEE LKSHOR 0000   58     180/  9/ 15 1011.2S
$$


USA.gov is the U.S. government's official web portal to all federal, state and local government web resources and services.